Flag for Germany Weather past 2 weeks in Erlangen, Bavaria, Germany

Now
59 °F

Sunny.


Feels Like: 59 °F
Forecast: 62 / 85 °F
Wind: 1 mph from North

Location: Nuernberg

Current Time: Aug 1, 2014 at 7:56:13 AM

Latest Report: Aug 1, 2014 at 7:20 AM


Visibility: 10 mi

Pressure: 29.95 "Hg

Humidity: 88%

Dew point: 55 °F

Location of ErlangenLocation

Historic Weather in Erlangen — Graph

°F

Erlangen temperature yesterday

Maximum temperature yesterday: 75 °F (at 3:20 PM)
Minimum temperature yesterday: 61 °F (at 11:50 PM)
Average temperature yesterday: 68 °F

Past Weeks' High & Low Weather Summary

 TemperatureHumidityPressure
High90 °F (Jul 19, 3:20 PM)100% (Jul 17, 6:20 AM)30.18 "Hg (Jul 17, 6:20 AM)
Low54 °F (Jul 24, 5:20 AM)26% (Jul 19, 5:50 PM)29.71 "Hg (Jul 29, 5:20 PM)
Average70 °F72%29.93 "Hg
* Reported Jul 17 6:20 AM — Aug 1 6:50 AM, Erlangen, Weather by CustomWeather, © 2014

Note: Actual official high and low records may vary slightly from our data, if they occured in-between our weather recording intervals... More about our weather records

Advertising

Erlangen weather history for previous 24 hours

 ConditionsComfort  
Time TempWeatherWind HumidityBarometerVisibility
6:50 AM
Aug 1
57 °FFog.1 mph94%29.95 "HgN/A
6:20 AM54 °FFog.1 mph100%29.95 "HgN/A
5:50 AM54 °FFog.1 mph100%29.95 "HgN/A
5:20 AM55 °FFog.1 mph94%29.95 "HgN/A
4:50 AM57 °FFog.2 mph94%29.95 "HgN/A
4:20 AM57 °FFog.3 mph94%29.95 "HgN/A
3:50 AM57 °FFog.1 mph88%29.95 "HgN/A
3:20 AM57 °FClear.1 mph94%29.95 "Hg10 mi
2:50 AM57 °FClear.2 mph94%29.98 "Hg10 mi
2:20 AM59 °FClear.2 mph88%29.98 "Hg10 mi
1:50 AM59 °FClear.1 mph88%29.98 "Hg10 mi
1:20 AM57 °FClear.2 mph94%29.98 "Hg10 mi
12:50 AM61 °FClear.2 mph83%29.98 "Hg10 mi
12:20 AM61 °FPassing clouds.5 mph83%29.98 "HgN/A
11:50 PM
Jul 31
61 °FClear.3 mph83%29.98 "Hg10 mi
11:20 PM63 °FClear.3 mph83%29.98 "Hg10 mi
10:50 PM64 °FPassing clouds.3 mph78%29.98 "HgN/A
10:20 PM64 °FClear.2 mph73%29.95 "Hg10 mi
9:50 PM64 °FMild.2 mph78%29.95 "HgN/A
9:20 PM66 °FSunny.2 mph73%29.95 "Hg10 mi
8:50 PM70 °FSunny.1 mph64%29.95 "Hg10 mi
8:20 PM72 °FSunny.1 mph57%29.95 "Hg10 mi
7:50 PM72 °FSunny.1 mph57%29.95 "Hg10 mi
7:20 PM72 °FSunny.2 mph57%29.95 "Hg10 mi
6:50 PM73 °FPassing clouds.3 mph47%29.95 "HgN/A
6:20 PM75 °FPassing clouds.3 mph41%29.95 "HgN/A
5:50 PM73 °FPassing clouds.5 mph47%29.95 "HgN/A
5:20 PM75 °FSunny.3 mph47%29.95 "Hg10 mi
4:50 PM75 °FSunny.2 mph44%29.98 "Hg10 mi
4:20 PM73 °FSunny.3 mph50%29.98 "Hg10 mi
3:50 PM75 °FSunny.5 mph47%29.98 "Hg10 mi
3:20 PM75 °FPassing clouds.6 mph44%29.98 "HgN/A
2:50 PM73 °FPassing clouds.5 mph50%29.98 "HgN/A
2:20 PM73 °FPassing clouds.8 mph50%29.98 "HgN/A
1:50 PM73 °FPassing clouds.6 mph50%29.98 "HgN/A
1:20 PM73 °FScattered clouds.3 mph50%29.98 "HgN/A
12:50 PM72 °FScattered clouds.5 mph57%29.98 "HgN/A
12:20 PM72 °FScattered clouds.5 mph61%30.01 "HgN/A
11:50 AM72 °FScattered clouds.3 mph65%30.01 "HgN/A
11:20 AM70 °FScattered clouds.3 mph64%30.01 "HgN/A
10:50 AM68 °FScattered clouds.6 mph69%30.01 "HgN/A
10:20 AM68 °FScattered clouds.3 mph69%30.01 "HgN/A
9:50 AM68 °FScattered clouds.5 mph73%29.98 "HgN/A
9:20 AM66 °FScattered clouds.3 mph83%29.98 "HgN/A
8:50 AM66 °FScattered clouds.6 mph83%29.98 "HgN/A
8:20 AM66 °FScattered clouds.5 mph83%29.98 "HgN/A
7:50 AM66 °FPassing clouds.6 mph83%29.98 "HgN/A
7:20 AM64 °FSunny.1 mph88%29.98 "Hg10 mi
Weather by CustomWeather, © 2014

See weather overviewHow to use our weather pages